FENGYUN 1C DEB, 30442

Orbit data source: Space-Track

FENGYUN 1C DEB, 30442 is space debris in SSO originally from a launch on Mon, 10 May 1999 UTC launched from the Taiyaun Space Center, China (TSC). Fengyun 1C debris stems from the Chinese weather satellite Fengyun-1C, which was intentionally destroyed by a Chinese anti-satellite missile in 2007. This event dramatically increased the amount of space debris, with thousands of trackable fragments posing hazards to satellites and human spaceflight. The Fengyun 1C debris cloud has become a focal point in discussions about space sustainability and the need for international regulations to prevent the creation of new debris.

Loading next visibility...
Identifier
30442, 1999-025AFD
Orbit
SSO
Country
Flag of CNCN / PRC
Related business
Manufacturer
Unknown
Mission
Spacecraft
Bus & Motor
Unknown
Mass
Unknown
Launch date (UTC)
1999-05-10 (27 years ago)
Launch vehicle
Unknown
Launch site
Taiyaun Space Center, China (TSC)
Object type
Payload
Rocket body
Debris
Shape & HBR
Unknown shape, 0.1 m
Radar Cross Section
Medium (>0.1 m² and <1 m²)

Expand to show TLE details & history
Last TLE update: 2 days ago

TLE from 2 days ago
0 FENGYUN 1C DEB
1 30442U 99025AFD 26167.21576822  .00003849  00000-0  14674-2 0  9991
2 30442  98.8660 269.0639 0056199 109.9785 250.7461 14.30541442998128
Epoch: 2026-06-16T05:10Z
TLE epoch observation values (Epoch: 2026-06-16T05:10:42.374Z)
Latitude
-0.00002°
Longitude
-73.10365°
Altitude
806.333 km
Speed
7.443 km/s
True Right ascension
17h 56m 15s
True Declination
0° 00' 00"
Sunlit
Object was in full shadow at epoch
Visualization orbit readout
Latitude
Unknown
Longitude
Unknown
Altitude
Unknown
Speed
Unknown
Apparent Right ascension
Unknown
Apparent Declination
Unknown
Sunlit
N/A
Visualization observer readout
Local Sidereal Time
19:02:38
Azimuth
Unknown
Elevation
Unknown
Doppler factor
Unknown
Orbital elements
Apogee altitude
827.341 km
Perigee altitude
746.806 km
Semi-major axis
7,165.211 km
Eccentricity
0.00562
Inclination
98.866°
RAAN
269.0639°
Arg. of periapsis
109.9785°
True anomaly
250.13954°
Mean anomaly
250.7461°
Eccentric anomaly
250.44268°
Mean motion
3.57849 °/min
Orbital period
100.6 mins
BSTAR
0.0014674
Loading maneuver chart data...
Computing Atmospheric mass density...

Documentation

Showing up to 5 results
|